Home   Weather   Nanaimo   Past weeks

Flag for Canada Past Weather in Nanaimo, British Columbia, Canada — Yesterday and Last 2 Weeks

Now
58 °F

Cool.


Feels Like: 53 °F
Forecast: 49 / 64 °F
Wind: 25 mph from Northwest

Location: Entrance Island

Current Time: Sep 27, 2016 at 11:55:32 PM

Latest Report: Sep 27, 2016 at 11:00 PM


Visibility: N/A

Pressure: 30.16 "Hg

Humidity: 65%

Dew Point: 46 °F

Location of NanaimoLocation

Past Weather in Nanaimo — Graph

°F

Nanaimo Temperature Yesterday

Maximum temperature yesterday: 59 °F (at 2:00 PM)
Minimum temperature yesterday: 55 °F (at 6:00 AM)
Average temperature yesterday: 57 °F

High & Low Weather Summary for the Past Weeks

 TemperatureHumidityPressure
High66 °F (Sep 17, 5:00 PM)99% (Sep 20, 9:00 AM)30.42 "Hg (Sep 20, 9:00 AM)
Low52 °F (Sep 24, 6:00 AM)53% (Sep 17, 6:00 PM)29.77 "Hg (Sep 17, 9:00 AM)
Average58 °F83%30.08 "Hg
* Reported Sep 12 10:00 PM — Sep 27 10:00 PM, Nanaimo, Weather by CustomWeather, © 2016

Note: Actual official high and low records may vary slightly from our data, if they occured in-between our weather recording intervals... More about our weather records

Advertising

Nanaimo Weather History for the Previous 24 Hours

Scroll right to see more
 ConditionsComfort  
Time TempWeatherWind HumidityBarometerVisibility
10:00 PM
Tue, Sep 27
58 °FCool.25 mph70%30.16 "HgN/A
9:00 PM59 °FCool.23 mph65%30.16 "HgN/A
8:00 PM59 °FCool.18 mph68%30.16 "HgN/A
7:00 PM60 °FCool.22 mph65%30.16 "HgN/A
6:00 PM59 °FCool.21 mph66%30.17 "HgN/A
5:00 PM59 °FCool.23 mph61%30.18 "HgN/A
4:00 PM59 °FCool.23 mph65%30.20 "HgN/A
3:00 PM58 °FCool.23 mph69%30.21 "HgN/A
2:00 PM57 °FCool.23 mph75%30.23 "HgN/A
1:00 PM56 °FCool.25 mph73%30.23 "HgN/A
12:00 PM56 °FCool.29 mph74%30.23 "HgN/A
11:00 AM55 °FCool.32 mph75%30.22 "HgN/A
10:00 AM55 °FCool.29 mph76%30.22 "HgN/A
9:00 AM55 °FCool.28 mph77%30.21 "HgN/A
8:00 AM55 °FCool.30 mph76%30.19 "HgN/A
7:00 AM55 °FCool.30 mph74%30.17 "HgN/A
6:00 AM55 °FCool.26 mph77%30.17 "HgN/A
5:00 AM56 °FCool.30 mph76%30.15 "HgN/A
4:00 AM56 °FCool.32 mph75%30.14 "HgN/A
3:00 AM58 °FCool.26 mph76%30.12 "HgN/A
2:00 AM57 °FCool.28 mph84%30.11 "HgN/A
1:00 AM58 °FCool.30 mph83%30.09 "HgN/A
12:00 AM58 °FCool.26 mph93%30.08 "HgN/A
11:00 PM
Mon, Sep 26
57 °FCool.2 mph91%30.04 "HgN/A
Weather by CustomWeather, © 2016

See weather overviewHow to use our weather pages